MOLNIYA 3-8

Last updated on Aug. 7, 2020, 5:36 a.m. UTC

1 10455U 77105A   20219.66394744 -.00001046  00000-0 -11849-2 0  9990
2 10455  62.3155 103.3208 7285239 276.9906  12.6049  2.00494765313423
UTC
Height (km)
Latitude
Longitude
Inclination
Orbital Period
UTC large
Height (km)
Speed (km/s)
/
Latitude / Longitude
Inclination (degrees)
Orbital Period (minutes)
Azimuth
Elevation
Range (km)
Doppler Factor
iOS Compass Heading
iOS Angle

Next 30 passes for location: Hong Kong

Rise time Rise Azimuth (degrees) Set time Set Azimuth (degrees) Duration Max altitude (degrees)

No matching passes for this satellites